Racecast

SEC Championship Jamboree

Hudson Mills Metropark - OFFICIAL · 5000m · Girls · Compiled · MI

279 runners from 3 divisions

These divisions were run separately. This is how their times compare, not how they finished — the places and scores below were never contested.

View full meet →

Team scores

Place Team Points 12345 67
1 Saline (MI) 18 1 2 4 5 6 14 16
2 Temperance Bedford (MI) 94 9 13 19 26 27 31 44
3 Dexter (MI) 100 8 21 22 24 25 35 36
4 Ann Arbor Pioneer (MI) 118 7 12 28 34 37 38 39
5 Chelsea (MI) 118 10 15 23 30 40 41 46
6 Ann Arbor Huron (MI) 131 3 20 32 33 43 47 51
7 Ann Arbor Skyline (MI) 164 11 17 29 52 55 58 62
8 Monroe (MI) 236 18 45 48 61 64 68 72
9 Tecumseh (MI) 262 42 50 53 57 60 69 73
10 Adrian (MI) 298 54 56 59 63 66 67 70
11 Ypsilanti Community (MI) 334 49 65 71 74 75 76

Not scored, fewer than five finishers: Ypsilanti Lincoln (4)

Results

Place Athlete Grade School Time Rating Points Actual race
1 Elianna Shwayder 10 Saline (MI) 1 18:49.0 131.8 1 1
2 Lauren Green 9 Saline (MI) 2 19:02.0 130.3 2 2
3 Alexandria Cell 10 Ann Arbor Huron (MI) 1 19:11.0 129.3 3 3
4 Abby Rentschler 9 Saline (MI) 3 19:11.0 129.3 4 4
5 Alyssa Cummings 11 Saline (MI) 4 19:20.0 128.3 5 5
6 Amy Creutz 12 Saline (MI) 5 19:31.0 127.1 6 6
7 Katherine Hoevet 12 Ann Arbor Pioneer (MI) 1 19:37.0 126.5 7 7
8 Elise Dombkowski 10 Dexter (MI) 1 19:38.0 126.4 8 1
9 Anne Redd 12 Temperance Bedford (MI) 1 19:40.0 126.2 9 8
10 Danielle Dahl 12 Chelsea (MI) 1 19:42.0 125.9 10 2
11 Lauren Halpern 11 Ann Arbor Skyline (MI) 1 19:47.0 125.4 11 9
12 Rosanna Neuhausler 12 Ann Arbor Pioneer (MI) 2 19:48.0 125.3 12 10
13 Kourtney Osentoski 12 Temperance Bedford (MI) 2 19:55.0 124.6 13 11
14 Gloria Park 10 Saline (MI) 6 19:56.0 124.5 14 12
15 Maegen Hopkins 9 Chelsea (MI) 2 19:56.0 124.5 15 3
16 Kelly Hall 11 Saline (MI) 7 20:01.0 124.0 16 1
17 Anita Vander Meulen 10 Ann Arbor Skyline (MI) 2 20:03.0 123.7 17 13
18 Riley Delben 10 Monroe (CA) 1 20:04.0 123.6 18 14
19 Kelsey Calhoun 12 Temperance Bedford (MI) 3 20:09.0 123.1 19 15
20 Jessica Johnson 10 Ann Arbor Huron (MI) 2 20:10.0 123.0 20 16
21 Alexandra Ammann 9 Dexter (MI) 2 20:17.0 122.3 21 4
22 Amy Frauhammer 12 Saline (MI) 8 20:17.0 122.3 2
23 Cailin McLean 10 Dexter (MI) 3 20:18.0 122.2 22 5
24 Jessica Battaglia 12 Chelsea (MI) 3 20:21.0 121.9 23 6
25 Elizabeth Greve 9 Dexter (MI) 4 20:22.0 121.8 24 7
26 Robin Jackson 10 Dexter (MI) 5 20:22.0 121.8 25 8
27 Kaileigh Keller 10 Saline (MI) 9 20:24.0 121.6 3
28 Lindsay Walter 11 Saline (MI) 10 20:32.0 120.8 17
29 Maria Romero 10 Saline (MI) 11 20:35.0 120.5 4
30 Mara Van Sickle 11 Saline (MI) 12 20:37.0 120.3 5
31 Lauren Bules 11 Temperance Bedford (MI) 4 20:42.0 119.9 26 18
32 Kaitlyn Leist 10 Temperance Bedford (MI) 5 20:46.0 119.5 27 6
33 Audie Tzalel 11 Ann Arbor Pioneer (MI) 3 20:48.0 119.3 28 19
34 Jessica Knight 12 Ann Arbor Skyline (MI) 3 20:49.0 119.2 29 20
35 Samantha Szuminski 11 Saline (MI) 13 20:49.0 119.2 7
36 Erin Fitch 11 Saline (MI) 14 20:49.0 119.2 8
37 Elaine Johnson 12 Chelsea (MI) 4 20:52.0 118.9 30 9
38 Emily Holmes 12 Temperance Bedford (MI) 6 20:53.0 118.8 31 21
39 Mara Darian 12 Ann Arbor Huron (MI) 3 20:54.0 118.7 32 22
40 Josie Granner 10 Ann Arbor Huron (MI) 4 20:54.0 118.7 33 23
41 Naomi Wilkin 10 Ann Arbor Pioneer (MI) 4 20:57.0 118.4 34 24
42 Emily Pap 12 Dexter (MI) 6 20:58.0 118.3 35 10
43 Mara Bottomley 11 Dexter (MI) 7 21:03.0 117.9 36 9
44 Skye Huerta 12 Ann Arbor Pioneer (MI) 5 21:05.0 117.7 37 25
45 Jenny Kise 10 Saline (MI) 15 21:06.0 117.6 10
46 Kristin Green 11 Saline (MI) 16 21:07.0 117.5 11
47 Calley Jastrow 12 Saline (MI) 17 21:08.0 117.4 12
48 Madeleine Nicholas 9 Dexter (MI) 8 21:09.0 117.3 13
49 Kelly Richart 12 Saline (MI) 18 21:09.0 117.3 14
50 Madeline Halpert 9 Ann Arbor Pioneer (MI) 6 21:10.0 117.2 38 26
51 Andrea Reyes 12 Ann Arbor Pioneer (MI) 7 21:10.0 117.2 39 27
52 Victoria Waidley 12 Dexter (MI) 9 21:11.0 117.1 15
53 Danielle Rathfon 9 Saline (MI) 19 21:14.0 116.8 16
54 Paige O'Piela 9 Dexter (MI) 10 21:15.0 116.8 11
55 Alexis Ammon 10 Saline (MI) 20 21:15.0 116.8 17
56 Ella Fritzemeier 11 Chelsea (MI) 5 21:17.0 116.6 40 12
57 Adela Myles 10 Ypsilanti Lincoln (MI) 1 21:19.0 116.4 13
58 Madison Nelson 10 Chelsea (MI) 6 21:20.0 116.3 41 14
59 Erin Landstrom 12 Tecumseh (MI) 1 21:20.0 116.3 42 15
60 Christa Kuck 11 Ann Arbor Huron (MI) 5 21:23.0 116.0 43 28
61 Chloe Rick 11 Temperance Bedford (MI) 7 21:28.0 115.6 44 29
62 Alexis Nowicki 11 Saline (MI) 21 21:29.0 115.5 18
63 Paige Bork 11 Monroe (CA) 2 21:32.0 115.2 45 30
64 Hailey Burns 9 Temperance Bedford (MI) 8 21:32.0 115.2 31
65 Marquerite Erkkinen 11 Ann Arbor Pioneer (MI) 8 21:34.0 115.0 19
66 Kennedy Aldrich 11 Chelsea (MI) 7 21:34.0 115.0 46 16
67 Rylee Hanson 11 Dexter (MI) 11 21:35.0 115.0 20
68 Laura Kanji 9 Ann Arbor Huron (MI) 6 21:38.0 114.7 47 32
69 Jessi Livsey 9 Saline (MI) 22 21:38.0 114.7 21
70 Telana Kabisch 10 Ann Arbor Pioneer (MI) 9 21:40.0 114.5 22
71 Lindsey Hopkins 11 Chelsea (MI) 8 21:45.0 114.1 23
72 Lindsey Zawacki 9 Monroe (CA) 3 21:45.0 114.1 48 33
73 Mira Lupu 10 Ann Arbor Pioneer (MI) 10 21:46.0 114.0 24
74 Tara Stetler 11 Dexter (MI) 12 21:48.0 113.8 25
75 Endia Francois 10 Ypsilanti Community (MI) 1 21:50.0 113.6 49 17
76 Julie Soisson 12 Saline (MI) 23 21:50.0 113.6 26
77 Sam Greeley 9 Temperance Bedford (MI) 9 21:51.0 113.5 27
78 Lindsey McQuade 12 Saline (MI) 24 21:54.0 113.3 28
79 Abbey Sovitch 11 Saline (MI) 25 21:54.0 113.3 29
80 Emily Woods 10 Temperance Bedford (MI) 10 21:55.0 113.2 30
81 Mackenzie Keller 12 Saline (MI) 26 21:57.0 113.0 31
82 Anna Fedoronko 10 Saline (MI) 27 21:57.0 113.0 32
83 Sam Kassmakis 10 Temperance Bedford (MI) 11 21:57.0 113.0 33
84 Kate Denny 10 Saline (MI) 28 21:59.0 112.9 34
85 Elena Boudreau 11 Ann Arbor Pioneer (MI) 11 22:00.0 112.8 35
86 Megan Eekhoff 12 Dexter (MI) 13 22:02.0 112.6 36
87 Emily Davis 10 Temperance Bedford (MI) 12 22:03.0 112.5 37
88 Jessica Tebbetts 9 Tecumseh (MI) 2 22:05.0 112.3 50 18
89 Lauren O'Toole 10 Chelsea (MI) 9 22:12.0 111.8 38
90 Katie Colosimo 12 Saline (MI) 29 22:18.0 111.3 39
91 Cassie Klocek 10 Dexter (MI) 14 22:20.0 111.1 40
92 Sarah Marshall 12 Saline (MI) 30 22:22.0 110.9 41
93 Aviva Shwayder 12 Saline (MI) 31 22:23.0 110.8 42
94 Ali Baker 10 Temperance Bedford (MI) 13 22:27.0 110.5 43
95 Jenny Perry 11 Temperance Bedford (MI) 14 22:28.0 110.4 44
96 Emily Reyst 11 Saline (MI) 32 22:30.0 110.3 45
97 Gwen Hubbard 11 Chelsea (MI) 10 22:33.0 110.0 46
98 Elizabeth Sanderson 10 Saline (MI) 33 22:33.0 110.0 47
99 Marissa Butler 10 Dexter (MI) 15 22:36.0 109.8 48
100 Katie Adler 12 Dexter (MI) 16 22:36.0 109.8 49
101 Cassie Mullenix 11 Saline (MI) 34 22:38.0 109.6 50
102 Nikila Lakshmanan 12 Ann Arbor Huron (MI) 7 22:40.0 109.5 51 51
103 Emily Diehl 9 Saline (MI) 35 22:42.0 109.3 52
104 Kayla Chmiel 9 Temperance Bedford (MI) 15 22:44.0 109.1 53
105 Madeline Rombes 12 Ann Arbor Skyline (MI) 4 22:49.0 108.7 52 34
106 Claire Meingast 9 Ann Arbor Pioneer (MI) 12 22:53.0 108.4 54
107 Taylor Day 10 Saline (MI) 36 22:55.0 108.3 55
108 Megan Scott 9 Saline (MI) 37 22:55.0 108.3 56
109 Vanessa Geiger 10 Temperance Bedford (MI) 16 22:57.0 108.1 57
110 Katie Kasper 10 Tecumseh (MI) 3 23:01.0 107.8 53 19
111 Hannah Engle 11 Adrian (MI) 1 23:02.0 107.7 54 20
112 Katie Bules 9 Temperance Bedford (MI) 17 23:02.0 107.7 58
113 Claire Roos 12 Ann Arbor Huron (MI) 8 23:02.0 107.7 35
114 Kiaura Clark 11 Ann Arbor Skyline (MI) 5 23:04.0 107.6 55 36
115 Allie Pete 9 Temperance Bedford (MI) 18 23:06.0 107.4 59
116 Samantha Pawlowski 9 Saline (MI) 38 23:10.0 107.1 60
117 Shelby McKenzie 11 Dexter (MI) 17 23:12.0 106.9 61
118 Jackie Frey 12 Saline (MI) 39 23:13.0 106.9 62
119 Taylor Pastor 12 Ann Arbor Pioneer (MI) 13 23:17.0 106.6 63
120 Shelby Raymo 11 Temperance Bedford (MI) 19 23:17.0 106.6 64
121 Aleah Kramarczyk 10 Ypsilanti Lincoln (MI) 2 23:20.0 106.3 21
122 Holly Perez 9 Adrian (MI) 2 23:22.0 106.2 56 22
123 Devan Wetzel 11 Saline (MI) 40 23:23.0 106.1 65
124 Hayley Byrnes 12 Saline (MI) 41 23:24.0 106.0 66
125 Karlie Wright 12 Tecumseh (MI) 4 23:25.0 106.0 57 23
126 Grace Latshaw 11 Dexter (MI) 18 23:25.0 106.0 67
127 Elise Hiskens 12 Ann Arbor Huron (MI) 9 23:33.0 105.3 68
128 Chaune Rael-Whitsitt 12 Ann Arbor Skyline (MI) 6 23:33.0 105.3 58 37
129 Leanne DeVries 9 Ann Arbor Huron (MI) 10 23:34.0 105.3 69
130 Lexi Janego 12 Adrian (MI) 3 23:35.0 105.2 59 24
131 Jasmine Kipke 12 Dexter (MI) 19 23:35.0 105.2 70
132 Erin Stauder 10 Saline (MI) 42 23:35.0 105.2 71
133 Romina Potter 11 Ann Arbor Pioneer (MI) 14 23:37.0 105.0 72
134 Allison Murphy 10 Dexter (MI) 20 23:39.0 104.9 73
135 Kendra Randolph 11 Tecumseh (MI) 5 23:40.0 104.8 60 25
136 Megan Brady 12 Monroe (CA) 4 23:41.0 104.8 61 38
137 Lauren Hunter 9 Saline (MI) 43 23:42.0 104.7 74
138 Natalie Wysocki 11 Saline (MI) 44 23:45.0 104.5 75
139 Emily Bishop 11 Dexter (MI) 21 23:51.0 104.0 76
140 Emma Kern 11 Ann Arbor Pioneer (MI) 15 23:52.0 104.0 77
141 Lauren Weinberg 9 Ann Arbor Pioneer (MI) 16 23:55.0 103.7 78
142 Brittany Gralak 11 Temperance Bedford (MI) 20 23:56.0 103.7 79
143 Olivia Thorp 11 Ann Arbor Skyline (MI) 7 23:58.0 103.5 62 80
144 Amelia Wittig 10 Saline (MI) 45 24:00.0 103.4 81
145 Erica Theros 11 Ann Arbor Skyline (MI) 8 24:04.0 103.1 82
146 Makayla Bradley 9 Chelsea (MI) 11 24:09.0 102.7 83
147 Meredith Mack 12 Saline (MI) 46 24:09.0 102.7 84
148 Natalie Zimmerman 10 Saline (MI) 47 24:10.0 102.7 85
149 Bethany Easom 12 Saline (MI) 48 24:11.0 102.6 86
150 Elsie Bush 10 Saline (MI) 49 24:12.0 102.5 87
151 Alexs Howard 10 Adrian (MI) 4 24:13.0 102.5 63 26
152 Lindsey Velich 11 Temperance Bedford (MI) 21 24:13.0 102.5 88
153 Lauren Mastic 11 Saline (MI) 50 24:14.0 102.4 89
154 Julia Hogikyan 12 Saline (MI) 51 24:15.0 102.3 90
155 Alyssa Smith 10 Saline (MI) 52 24:19.0 102.0 91
156 Chelsea Bauders 9 Temperance Bedford (MI) 22 24:20.0 102.0 92
157 Ellie Hodges 10 Saline (MI) 53 24:20.0 102.0 93
158 Megan Green 12 Saline (MI) 54 24:23.0 101.8 94
159 Victoria Warnecke 10 Monroe (CA) 5 24:23.0 101.8 64 39
160 Kira Crawley 10 Ypsilanti Community (MI) 2 24:24.0 101.7 65 27
161 Reagan Damoose 9 Saline (MI) 55 24:28.0 101.4 95
162 Liz Troost 12 Saline (MI) 56 24:29.0 101.3 96
163 Lauren Nichols 11 Saline (MI) 57 24:30.0 101.3 97
164 Sarah Miller 9 Saline (MI) 58 24:31.0 101.2 98
165 Marissa Klinski 12 Saline (MI) 59 24:34.0 101.0 99
166 Marissa Vargas 12 Adrian (MI) 5 24:38.0 100.7 66 28
167 Megan Spagnoli 10 Adrian (MI) 6 24:40.0 100.6 67 29
168 Jamie Rudisill 11 Saline (MI) 60 24:40.0 100.6 100
169 Maadhuri Srinivasan 9 Ann Arbor Huron (MI) 11 24:42.0 100.5 101
170 Madison Moss 12 Dexter (MI) 22 24:43.0 100.4 102
171 Elise Tuneff 12 Saline (MI) 61 24:43.0 100.4 103
172 Torri Cox 11 Ann Arbor Pioneer (MI) 17 24:45.0 100.2 104
173 Sandy Zilka 11 Monroe (CA) 6 24:47.0 100.1 68 40
174 Anne Boxeth 9 Saline (MI) 62 24:51.0 99.8 105
175 Raquel Champion 11 Tecumseh (MI) 6 24:52.0 99.8 69 106
176 Lauren Allport 12 Saline (MI) 63 24:53.0 99.7 107
177 Aime McKenzie 11 Dexter (MI) 23 24:54.0 99.6 108
178 Elizabeth Ausmus 11 Saline (MI) 64 24:58.0 99.4 109
179 Kristina Henning 11 Adrian (MI) 7 25:00.0 99.2 70 110
180 Oliva Jepson 11 Saline (MI) 65 25:08.0 98.7 111
181 Abby Jenks 11 Saline (MI) 66 25:08.0 98.7 112
182 Aubrey Loftus 9 Saline (MI) 67 25:09.0 98.7 113
183 Daeja Raglin 12 Ypsilanti Community (MI) 3 25:10.0 98.6 71 30
184 Mariam Carson 11 Ann Arbor Skyline (MI) 9 25:13.0 98.4 114
185 Hannah Wagner 11 Temperance Bedford (MI) 23 25:17.0 98.1 115
186 Jordan Burman 12 Monroe (CA) 7 25:18.0 98.1 72 41
187 Carli Shankland 11 Saline (MI) 68 25:20.0 97.9 116
188 Maddie Parkinson 12 Saline (MI) 69 25:21.0 97.9 117
189 Lindsey Talcott 11 Saline (MI) 70 25:21.0 97.9 118
190 Kamaria Lee 12 Ann Arbor Huron (MI) 12 25:22.0 97.8 119
191 Charlotte Chimbira 10 Ann Arbor Skyline (MI) 10 25:23.0 97.7 120
192 Stephanie Lyons 12 Ann Arbor Pioneer (MI) 18 25:25.0 97.6 121
193 Sarah Sharp 10 Saline (MI) 71 25:25.0 97.6 122
194 Susan Valensky 9 Ann Arbor Huron (MI) 13 25:27.0 97.5 123
195 Alexis Guziel 10 Ypsilanti Lincoln (MI) 3 25:27.0 97.5 31
196 Mikayla Bush 12 Saline (MI) 72 25:28.0 97.4 124
197 Selina Dorking 12 Ann Arbor Skyline (MI) 11 25:28.0 97.4 125
198 Chandani Wiersba 10 Saline (MI) 73 25:29.0 97.4 126
199 Annie Valade 11 Temperance Bedford (MI) 24 25:32.0 97.2 127
200 Kelsey Hammer 9 Tecumseh (MI) 7 25:33.0 97.1 73 32
201 Josie Elordi 9 Chelsea (MI) 12 25:34.0 97.0 128
202 Zoe Melnyk 10 Tecumseh (MI) 8 25:34.0 97.0 33
203 Lauren Hogikyan 10 Saline (MI) 74 25:37.0 96.8 129
204 Ellie Schwingel 9 Saline (MI) 75 25:37.0 96.8 130
205 Kelsey Grim 10 Saline (MI) 76 25:42.0 96.5 131
206 Caylin Rozelle 10 Ann Arbor Huron (MI) 14 25:43.0 96.5 132
207 Bridget Smith 12 Saline (MI) 77 25:49.0 96.1 133
208 Bethany Louria 9 Saline (MI) 78 25:54.0 95.8 134
209 Julia Young 10 Ann Arbor Skyline (MI) 12 25:55.0 95.7 135
210 Paris Schofield 11 Saline (MI) 79 25:58.0 95.5 136
211 Katherine Marx 10 Saline (MI) 80 25:59.0 95.5 137
212 Serena Galea 12 Saline (MI) 81 26:02.0 95.3 138
213 Laura Nye 11 Saline (MI) 82 26:14.0 94.6 139
214 Kayla Miller 10 Adrian (MI) 8 26:14.0 94.6 140
215 Halle Dawson 10 Saline (MI) 83 26:19.0 94.3 141
216 Rachel Paxton 12 Saline (MI) 84 26:26.0 93.9 142
217 Celina Clark 9 Dexter (MI) 24 26:27.0 93.8 143
218 Lucy Ma 12 Ann Arbor Huron (MI) 15 26:31.0 93.6 144
219 Liz Knight 12 Saline (MI) 85 26:36.0 93.3 145
220 Thea Givens 9 Saline (MI) 86 26:38.0 93.2 146
221 Kathleen Reuter 9 Saline (MI) 87 26:40.0 93.0 147
222 Amalie Farah 11 Temperance Bedford (MI) 25 26:42.0 92.9 148
223 Hannah Phillips 10 Temperance Bedford (MI) 26 26:44.0 92.8 149
224 Marly Fortin 10 Ann Arbor Pioneer (MI) 19 26:46.0 92.7 150
225 Emily Ji 10 Ann Arbor Huron (MI) 16 26:49.0 92.5 151
226 Leticia Oreski 12 Dexter (MI) 25 26:51.0 92.4 152
227 Carneysha McGee 12 Ypsilanti Community (MI) 4 26:52.0 92.3 74 34
228 Paige Fordice 11 Saline (MI) 88 26:52.0 92.3 153
229 Jessie Kim 10 Ann Arbor Skyline (MI) 13 26:53.0 92.3 154
230 Fatou Conde 11 Ypsilanti Community (MI) 5 26:53.0 92.3 75 35
231 Emily Eisele 12 Tecumseh (MI) 9 26:58.0 92.0 155
232 Evalyn Stow 9 Saline (MI) 89 27:07.0 91.5 156
233 Elizabeth Burns 12 Ypsilanti Lincoln (MI) 4 27:08.0 91.4 36
234 Michelle Young 12 Saline (MI) 90 27:08.0 157
235 Samantha Engelmeier 9 Saline (MI) 91 27:09.0 91.4 158
236 Anna Soto 11 Adrian (MI) 9 27:14.0 91.1 159
237 Emily Kelley 12 Saline (MI) 92 27:16.0 91.0 160
238 Abby McQuade 10 Saline (MI) 93 27:22.0 90.7 161
239 Missy Giles 10 Ann Arbor Huron (MI) 17 27:23.0 90.6 162
240 Aaliyah Jihad 10 Ann Arbor Pioneer (MI) 20 27:24.0 90.5 163
241 Megan Jaske 11 Saline (MI) 94 27:40.0 89.7 164
242 Coleen Truong 9 Ann Arbor Huron (MI) 18 27:43.0 89.5 165
243 Alex Eddington 12 Saline (MI) 95 27:43.0 89.5 166
244 Kelsey Harper 11 Saline (MI) 96 27:49.0 89.2 167
245 Shelby Harris 12 Saline (MI) 97 27:56.0 88.8 168
246 Kellie Finley 11 Monroe (CA) 8 27:59.0 88.7 169
247 Leah Shear 11 Temperance Bedford (MI) 27 28:00.0 88.6 170
248 Abby Nichols 9 Saline (MI) 98 28:12.0 88.0 171
249 Elizabeth Caswell 10 Saline (MI) 99 28:12.0 88.0 172
250 Alexa Ross 10 Saline (MI) 100 28:25.0 87.3 173
251 Alyssa Meister 10 Saline (MI) 101 28:29.0 87.1 174
252 Paige Smith 10 Saline (MI) 102 28:33.0 86.9 175
253 Kelsey Miller 10 Adrian (MI) 10 28:38.0 86.7 176
254 Amanda Cobb 12 Ann Arbor Huron (MI) 19 28:41.0 86.5 177
255 Nora Myers 10 Saline (MI) 103 28:46.0 86.2 178
256 Melanie Moeller 11 Saline (MI) 104 28:48.0 86.2 179
257 Mara Johnson 9 Monroe (CA) 9 28:49.0 86.1 180
258 Sarah Elliott 12 Saline (MI) 105 28:49.0 86.1 181
259 Dasha Gilmore 10 Saline (MI) 106 28:58.0 85.7 182
260 Alexi Schnur 11 Tecumseh (MI) 10 29:03.0 85.4 183
261 Alyssa Soltis 12 Saline (MI) 107 29:08.0 85.2 184
262 Meghan Mossing 10 Adrian (MI) 11 29:44.0 83.4 185
263 Micaela Stevenson 9 Ann Arbor Huron (MI) 20 29:55.0 82.9 186
264 Michelle Sweigart 11 Saline (MI) 108 29:55.0 82.9 187
265 Melissa Lemke 12 Dexter (MI) 26 30:00.0 82.7 188
266 Jenny Crayne 9 Saline (MI) 109 30:30.0 81.3 189
267 Karina Becker 10 Saline (MI) 110 30:41.0 80.9 190
268 Cassandra Winner 12 Saline (MI) 111 31:00.0 80.0 191
269 Annie Lindsley 12 Saline (MI) 112 31:07.0 79.7 192
270 Kaitlin Bonds 11 Saline (MI) 113 31:31.0 78.7 193
271 Tori Arnold 9 Saline (MI) 114 32:12.0 77.0 194
272 Holly Mishina 11 Saline (MI) 115 32:50.0 75.6 195
273 Payton Cooper 11 Saline (MI) 116 32:55.0 75.4 196
274 Shylon Bonnici 9 Ypsilanti Community (MI) 6 32:57.0 75.3 76 197
275 Carla Hendershot 9 Saline (MI) 117 33:00.0 75.2 198
276 Maddy Krebs 11 Saline (MI) 118 34:05.0 72.8 199
277 Michaella Ferguson 11 Monroe (CA) 10 34:36.0 71.7 200
278 Monica Shah 11 Saline (MI) 119 35:49.0 69.3 201
279 Dilann Yasin 11 Saline (MI) 120 40:29.0 61.3 202